User: anonymous   Login
Location: NJAA Observatory
(40.6819°N, 74.8979°W)
Time: 09:05:08
(UTC-05:00)
Language:

Meteor 1-28 Rocket - Orbit

View from above orbital plane
View from above orbital plane
View from above satellite
View from above satellite

Ground track
Ground track

The orbit data is extracted from the following two-line orbital elements,

1 10114U 77057B   16342.21829895  .00000499  00000-0  28773-4 0  9996
2 10114  97.1963 168.2209 0012421 270.6162  89.3648 15.16526772154455
Epoch (UTC): 07 December 2016 05:14:21
Eccentricity: 0.0012421
inclination: 97.1963°
perigee height: 508 km
apogee height: 525 km
right ascension of ascending node: 168.2209°
argument of perigee: 270.6162°
revolutions per day: 15.16526772
mean anomaly at epoch: 89.3648°
orbit number at epoch: 15445

The dashed part of the orbit path shows where the satellite is in the earth's shadow,  

DLR